Location: Freistadt
(48.5112°N, 14.5013°E)
Time: 10:05:50
(UTC+01:00)

N. Korean satellite - Pass Details

Date: 30 November 2022
Orbit: 407 x 444 km, 97.3° (Epoch: 28 January)

Event Time Altitude Azimuth Distance (km) Brightness Sun altitude
Rises 05:30:17 0° 12° (NNE) 2,527 10.2 -19.3°
Reaches altitude 10° 05:32:21 10° 12° (NNE) 1,643 9.2 -19.0°
Maximum altitude 05:35:53 85° 287° (WNW) 477 6.3 -18.4°
Drops below altitude 10° 05:39:22 10° 196° (SSW) 1,613 9.2 -17.8°
Sets 05:41:23 0° 196° (SSW) 2,475 10.1 -17.5°
